TimeCST,TemperatureF,Dew PointF,Humidity,Sea Level PressureIn,VisibilityMPH,Wind Direction,Wind SpeedMPH,Gust SpeedMPH,PrecipitationIn,Events,Conditions,WindDirDegrees,DateUTC
12:55 AM,38.1,26.1,62,30.00,10.0,SSW,11.5,-,N/A,,Clear,200,2013-01-08 06:55:00
1:55 AM,37.4,25.9,63,30.00,10.0,SSW,12.7,-,N/A,,Clear,200,2013-01-08 07:55:00
2:55 AM,36.9,25.5,64,30.00,10.0,SSW,15.0,20.7,N/A,,Clear,210,2013-01-08 08:55:00
3:55 AM,36.9,26.4,66,29.99,10.0,SSW,13.8,-,N/A,,Clear,210,2013-01-08 09:55:00
4:55 AM,38.1,28.2,68,29.97,10.0,SSW,17.3,-,N/A,,Mostly Cloudy,200,2013-01-08 10:55:00
5:55 AM,38.3,28.6,68,29.96,10.0,SSW,16.1,24.2,N/A,,Scattered Clouds,200,2013-01-08 11:55:00
6:55 AM,38.1,29.3,71,29.95,10.0,South,17.3,27.6,N/A,,Clear,180,2013-01-08 12:55:00
7:55 AM,37.9,31.1,76,29.95,10.0,South,19.6,-,N/A,,Clear,190,2013-01-08 13:55:00
8:55 AM,39.6,31.6,73,29.96,10.0,South,18.4,25.3,N/A,,Partly Cloudy,190,2013-01-08 14:55:00
9:55 AM,44.1,31.3,61,29.97,10.0,SSW,19.6,28.8,N/A,,Clear,200,2013-01-08 15:55:00
10:55 AM,48.0,31.1,52,29.98,10.0,SSW,18.4,27.6,N/A,,Clear,210,2013-01-08 16:55:00
11:55 AM,50.7,31.1,47,29.97,10.0,SW,23.0,27.6,N/A,,Clear,220,2013-01-08 17:55:00
12:55 PM,52.3,31.3,45,29.94,10.0,SW,17.3,-,N/A,,Clear,220,2013-01-08 18:55:00
1:55 PM,54.9,30.9,40,29.91,10.0,South,18.4,25.3,N/A,,Clear,190,2013-01-08 19:55:00
2:55 PM,56.1,31.1,39,29.94,10.0,SW,16.1,-,N/A,,Clear,220,2013-01-08 20:55:00
3:55 PM,52.9,32.4,46,29.98,10.0,West,10.4,-,N/A,,Clear,270,2013-01-08 21:55:00
4:55 PM,48.7,32.2,53,30.02,10.0,Variable,4.6,-,N/A,,Clear,0,2013-01-08 22:55:00
5:55 PM,42.3,31.1,65,30.06,10.0,WSW,3.5,-,N/A,,Clear,240,2013-01-08 23:55:00
6:55 PM,38.5,30.9,74,30.09,10.0,SSW,3.5,-,N/A,,Clear,210,2013-01-09 00:55:00
7:55 PM,36.7,30.7,79,30.13,10.0,Calm,Calm,-,N/A,,Clear,0,2013-01-09 01:55:00
8:55 PM,33.3,30.4,89,30.16,10.0,SW,6.9,-,N/A,,Clear,220,2013-01-09 02:55:00
9:55 PM,32.9,31.6,95,30.17,10.0,SSW,3.5,-,N/A,,Clear,210,2013-01-09 03:55:00
10:55 PM,31.1,30.7,99,30.20,10.0,WSW,3.5,-,N/A,,Clear,240,2013-01-09 04:55:00
11:55 PM,28.2,28.0,99,30.24,10.0,SSW,3.5,-,N/A,,Clear,210,2013-01-09 05:55:00